Regional Weather Roundup
Issued by NWS New Orleans/Baton Rouge, LA

Home | Current Version | Previous Version | Text Only | Print | Product List | Glossary On
Versions: 1 2 3 4 5 6 7 8 9 10 11 12 13 14 15 16 17 18 19 20 21 22 23 24 25 26 27 28 29 30 31 32 33 34 35 36 37 38 39 40 41 42 43 44 45 46 47 48 49 50
041
ASUS44 KLIX 011601
RWRLIX
NEW ORLEANS REGIONAL WEATHER ROUNDUP
NATIONAL WEATHER SERVICE NEW ORLEANS LA
1100 AM CDT MON SEP 01 2014

NOTE: "FAIR" INDICATES FEW OR NO CLOUDS BELOW 12,000 FEET WITH NO
      SIGNIFICANT WEATHER AND/OR OBSTRUCTIONS TO VISIBILITY.
      SKY/WX - SKY CONDITION AND SIGNIFICANT WEATHER.
      TMP - AIR TEMPERATURE.     DP    - DEWPOINT TEMPERATURE.
      RH  - RELATIVE HUMIDITY.   PRES  - PRESSURE.
      HI  - HEAT INDEX.          WCI   - WIND CHILL INDEX.

*  THESE STATIONS ARE NOT NWS OR FAA STATIONS AND ARE NOT UNDER
   NWS QUALITY CONTROL.

LAZ038-040-048-061>063-065>067-069-011700-
SOUTHEAST LOUISIANA

CITY           SKY/WX    TMP DP  RH WIND       PRES   REMARKS
N.O. AUDUBON     N/A     81  74  77 MISG        N/A
N.O. INTL ARPT PTSUNNY   88  77  69 SE13      30.06S THUNDER HX 100
N.O. LAKEFRONT MOSUNNY   88  74  63 SE15      30.07R HX  96
N.O. DOWNTOWN* PTSUNNY   90  73  58 SE6       30.07S HX  98
SLIDELL        MOSUNNY   89  75  63 S12G20    30.07S HX  99
BATON ROUGE    PTSUNNY   87  75  67 SE13      30.05R HX  96
BOOTHVILLE     HVY RAIN  81  76  84 SE12G18   30.08R
BELLE CHASSE   PTSUNNY   88  75  65 S13       30.05S THUNDER HX  97
BOGALUSA*        N/A     88  74  64 S7        30.09S HX  97
GALLIANO*      NOT AVBL
NEW ROADS*       N/A     87  76  69 SE12      30.05R HX  98
GONZALES*      LGT RAIN  85  76  75 S15G22    30.05R
HAMMOND*       NOT AVBL
HOUMA*         NOT AVBL
PORT FOURCHON* SUNNY     84  77  79 SE13      30.07S

$$

MSZ070-080>082-011700-
SOUTHERN MISSISSIPPI

CITY           SKY/WX    TMP DP  RH WIND       PRES   REMARKS
MCCOMB         PTSUNNY   85  73  67 SE12G21   30.08S
GULFPORT       MOSUNNY   88  77  69 SE14      30.08R HX 100
BILOXI         MOSUNNY   90  76  65 SE10      30.09R HX 101
PASCAGOULA     MOSUNNY   89  74  60 SE9       30.09S HX  98
STENNIS ARPT*  MOSUNNY  N/A N/A N/A S13G21    30.08S

$$

COASTAL OBSERVATIONS
LAKE AND NEARSHORE STATIONS

STATION/POSITION TIME  TEMP    WIND        PRES    WAVE
                       AIR SEA DIR/SP/G            HT/PER
                 (UTC) (F)     (DEG/KT/KT) (MB)    (FT/S)
PASCAGOULA       1500   88     140/  8/ 12 1018.7
WAVELAND YACHT   1500   84     150/ 10/ 13 1018.2
GRAND ISLE       1500   84 84  140/  9/ 14 1018.7
SOUTHWEST PASS   1500   87 90  140/ 11/ 14 1018.3
NEW CANAL        1500   87 81  150/  6/ 14 1018.4
SHELL BEACH      1500   86 80  130/ 16/ 19 1018.2

OFFSHORE STATIONS

STATION/POSITION TIME  TEMP    WIND        PRES    WAVE
                       AIR SEA DIR/SP/G            HT/PER
                 (UTC) (F)     (DEG/KT/KT) (MB)    (FT/S)
64 S DAUPHIN ISL 1500   85     130/ 14     1018.7

$$




USA.gov is the U.S. government's official web portal to all federal, state and local government web resources and services.